{"data":{"norad_id":62883,"intl_designator":"2025-024E","name":"STARLINK-11419 [DTC]","alt_names":[],"object_type":"PAYLOAD","status":"ACTIVE","operator":null,"country":"US","launch_date":"2025-02-04","launch_site_code":"AFETR","launch_vehicle":null,"mission":null,"orbit_class":"UNKNOWN","rcs_meters":null,"size_class":null,"mass_kg":null,"dimensions":null,"purposes":["comms"],"wikipedia_slug":null,"has_3d_model":false,"image_url":null,"decayed_at":null,"tle_current":{"epoch":"2026-09-21T21:19:01.399296Z","epoch_age_seconds":48228,"freshness":"FRESH","line1":"1 62883U 25024E   26264.88821064  .00136202  00000+0  10417-2 0  9995","line2":"2 62883  43.0013  78.8317 0004551 269.7031  90.3315 15.70965738 94327","mean_motion":15.70965738,"eccentricity":0.0004551,"inclination_deg":43.0013,"raan_deg":78.8317,"arg_perigee_deg":269.7031,"mean_anomaly_deg":90.3315,"bstar":0.0010417,"rev_number":9432,"period_min":91.663361279493,"perigee_km":353.07093529589,"apogee_km":359.20047030998,"semimajor_km":6734.2727028029,"source":"CELESTRAK","updated_at":"2026-09-22T09:00:49.702495Z"}}}